Stations météo

réclame
Mon MeteoGroup
Noervenich/Flugplatz, Allemagne (10502): Température de l'air & dewpoint: 14.09.2018 19:00:00 - 20.09.2018 19:00:00 (CEST)Noervenich/Flugplatz, Allemagne (10502): Vitesse du vent & gusts: 14.09.2018 19:00:00 - 20.09.2018 19:00:00 (CEST)Noervenich/Flugplatz, Allemagne (10502): Direction du vent: 14.09.2018 19:00:00 - 20.09.2018 19:00:00 (CEST)Noervenich/Flugplatz, Allemagne (10502): reduced air pressure: 14.09.2018 19:00:00 - 20.09.2018 19:00:00 (CEST)Noervenich/Flugplatz, Allemagne (10502): visibility: 14.09.2018 19:00:00 - 20.09.2018 19:00:00 (CEST)
Date & Time tt [°C] td [°C] ff [km/h] ff [knt] fx [km/h] fx [knt] dd ppp [hPa] vv [km]
20.09.2018 19:00:00 25,5 8,1 11 6 - - SW 1013,1 30
20.09.2018 18:00:00 26,8 8,6 18 10 - - SW 1013,5 30
20.09.2018 17:00:00 27,0 9,0 18 10 - - WSW 1014,3 30
20.09.2018 16:00:00 26,3 9,3 18 10 - - W 1015,2 30
20.09.2018 15:00:00 26,1 10,3 14 8 - - SW 1015,9 30
20.09.2018 14:00:00 25,3 10,9 18 10 - - SW 1016,6 30
20.09.2018 13:00:00 24,2 11,6 18 10 - - SW 1017,2 30
20.09.2018 12:00:00 23,5 11,7 18 10 - - WSW 1017,7 30
20.09.2018 11:00:00 21,9 12,3 11 6 - - SSW 1018,2 30
20.09.2018 10:00:00 19,7 12,1 14 8 - - SSW 1018,2 30
20.09.2018 09:00:00 17,4 11,8 11 6 - - SSW 1018,5 30
20.09.2018 08:00:00 15,5 11,5 14 8 - - SSW 1018,3 30
20.09.2018 07:00:00 15,5 11,4 7 4 - - SSW 1018,4 30
20.09.2018 06:00:00 16,0 11,3 14 8 - - SSW 1018,3 30
20.09.2018 05:00:00 16,5 11,5 14 8 - - SSW 1018,6 30
20.09.2018 04:00:00 16,2 11,4 14 8 - - SSW 1018,4 30
20.09.2018 03:00:00 16,3 11,4 11 6 - - S 1018,4 30
20.09.2018 02:00:00 17,6 11,5 7 4 - - N 1018,7 30
20.09.2018 01:00:00 18,3 11,7 11 6 - - SSW 1019,2 30
20.09.2018 00:00:00 18,9 11,8 11 6 - - WSW 1019,4 30
19.09.2018 23:00:00 17,9 11,3 11 6 - - WNW 1019,1 30
19.09.2018 22:00:00 20,2 11,8 7 4 - - W 1018,6 30
19.09.2018 21:00:00 21,7 12,1 14 8 - - W 1018,0 30
19.09.2018 20:00:00 24,3 12,0 14 8 - - WSW 1017,1 30
19.09.2018 19:00:00 26,6 12,3 18 10 - - SW 1016,4 30
19.09.2018 18:00:00 27,5 12,3 22 12 - - SW 1015,9 30
19.09.2018 17:00:00 27,8 12,2 29 16 - - WSW 1015,9 30
19.09.2018 16:00:00 27,3 12,5 22 12 - - WSW 1016,2 30
19.09.2018 15:00:00 27,2 12,8 22 12 - - WSW 1016,6 30
19.09.2018 14:00:00 27,2 13,7 22 12 - - SW 1016,9 30
19.09.2018 13:00:00 26,3 13,8 22 12 - - SW 1017,0 30
19.09.2018 12:00:00 25,6 14,0 25 14 - - SW 1017,3 30
19.09.2018 11:00:00 23,8 14,6 18 10 - - SSW 1017,8 10
19.09.2018 10:00:00 21,0 14,4 14 8 - - S 1017,7 20
19.09.2018 09:00:00 17,4 13,2 11 6 - - S 1017,8 20
19.09.2018 08:00:00 15,9 13,1 7 4 - - N 1018,0 20
19.09.2018 07:00:00 16,4 13,0 4 2 - - N 1018,0 30
19.09.2018 06:00:00 16,0 12,7 7 4 - - S 1017,8 40
19.09.2018 05:00:00 16,1 12,3 7 4 - - S 1017,9 40
19.09.2018 04:00:00 15,9 12,3 7 4 - - WSW 1017,8 40
19.09.2018 03:00:00 17,1 12,3 7 4 - - W 1017,7 40
19.09.2018 02:00:00 17,6 12,2 11 6 - - WNW 1017,3 40
19.09.2018 01:00:00 19,4 12,2 7 4 - - W 1016,9 40
19.09.2018 00:00:00 19,6 11,9 7 4 - - W 1016,6 40
18.09.2018 23:00:00 20,8 11,6 7 4 - - W 1016,1 40
18.09.2018 22:00:00 21,9 11,0 11 6 - - W 1015,7 40
18.09.2018 21:00:00 22,3 10,7 11 6 - - W 1015,3 40
18.09.2018 20:00:00 25,8 10,8 18 10 - - SW 1013,9 40
18.09.2018 19:00:00 28,0 9,8 22 12 - - SW 1012,7 40
18.09.2018 18:00:00 29,5 9,7 22 12 - - SW 1012,4 40
18.09.2018 17:00:00 30,3 9,2 32 18 - - WSW 1011,8 40
18.09.2018 16:00:00 32,0 7,5 32 18 47 25 W 1011,3 40
18.09.2018 15:00:00 31,5 9,4 22 12 - - W 1011,4 40
18.09.2018 14:00:00 30,2 10,2 18 10 - - WSW 1011,8 40
18.09.2018 13:00:00 29,3 12,1 22 12 - - SW 1012,2 40
18.09.2018 12:00:00 28,8 13,7 22 12 - - SW 1012,4 40
18.09.2018 11:00:00 26,8 10,5 14 8 - - S 1012,4 40
18.09.2018 10:00:00 23,9 10,1 18 10 - - S 1012,6 40
18.09.2018 09:00:00 21,0 9,4 14 8 - - SSE 1012,7 40
18.09.2018 08:00:00 19,0 8,7 18 10 - - SSE 1012,9 40
18.09.2018 07:00:00 19,0 8,4 18 10 - - SSE 1012,9 40
18.09.2018 06:00:00 17,7 8,9 14 8 - - S 1013,2 40
18.09.2018 05:00:00 15,9 7,7 11 6 - - SE 1013,6 30
18.09.2018 04:00:00 16,1 7,0 11 6 - - SSE 1014,0 30
18.09.2018 03:00:00 15,9 6,7 11 6 - - SSE 1014,3 30
18.09.2018 02:00:00 16,0 6,7 11 6 - - S 1014,6 30
18.09.2018 01:00:00 16,5 6,2 7 4 - - SSE 1015,1 30
18.09.2018 00:00:00 16,4 5,5 7 4 - - SSE 1015,4 30
17.09.2018 23:00:00 17,0 5,6 7 4 - - S 1015,8 30
17.09.2018 22:00:00 19,5 4,8 7 4 - - S 1015,7 30
17.09.2018 21:00:00 20,8 4,2 7 4 - - S 1015,7 30
17.09.2018 20:00:00 22,6 6,2 4 2 - - N 1015,6 40
17.09.2018 19:00:00 25,7 7,5 7 4 - - E 1015,5 40
17.09.2018 18:00:00 26,3 6,7 11 6 - - E 1015,9 40
17.09.2018 17:00:00 27,9 5,2 11 6 - - ESE 1016,2 40
17.09.2018 16:00:00 27,2 5,6 7 4 - - E 1017,2 40
17.09.2018 15:00:00 26,1 5,2 7 4 - - NNE 1017,8 40
17.09.2018 14:00:00 25,3 4,8 7 4 - - N 1018,4 40
17.09.2018 13:00:00 24,1 6,8 11 6 - - S 1019,1 40
17.09.2018 12:00:00 22,4 8,3 7 4 - - SE 1019,7 40
17.09.2018 11:00:00 19,9 8,8 7 4 - - N 1020,3 40
17.09.2018 10:00:00 16,5 8,7 7 4 - - N 1020,7 40
17.09.2018 09:00:00 11,9 7,4 4 2 - - N 1020,9 40
17.09.2018 08:00:00 8,6 6,2 7 4 - - N 1020,7 40
17.09.2018 07:00:00 8,3 6,0 4 2 - - N 1020,6 40
17.09.2018 06:00:00 9,6 7,0 0 0 - - N 1020,5 40
17.09.2018 05:00:00 10,2 6,9 7 4 - - N 1020,3 40
17.09.2018 04:00:00 10,0 7,0 0 0 - - N 1020,6 40
17.09.2018 03:00:00 10,3 7,1 0 0 - - N 1020,5 40
17.09.2018 02:00:00 11,5 7,4 0 0 - - N 1020,2 40
17.09.2018 01:00:00 11,9 7,2 0 0 - - N 1020,4 40
17.09.2018 00:00:00 14,1 7,7 4 2 - - N 1020,3 40
16.09.2018 23:00:00 16,0 8,4 4 2 - - N 1020,1 40
16.09.2018 22:00:00 15,1 7,9 7 4 - - W 1020,1 40
16.09.2018 21:00:00 17,4 7,9 7 4 - - N 1019,7 40
16.09.2018 20:00:00 20,0 7,2 0 0 - - N 1019,4 40
16.09.2018 19:00:00 23,0 7,3 11 6 - - E 1019,1 40
16.09.2018 18:00:00 23,4 7,0 11 6 - - ESE 1018,9 40
16.09.2018 17:00:00 24,2 6,4 7 4 - - SE 1019,4 40
16.09.2018 16:00:00 24,3 5,8 7 4 - - SE 1020,1 40
16.09.2018 15:00:00 23,2 5,9 4 2 - - S 1020,6 40
16.09.2018 14:00:00 22,9 5,9 7 4 - - ESE 1021,4 40
16.09.2018 13:00:00 22,0 5,6 7 4 - - SSE 1022,1 40
16.09.2018 12:00:00 20,3 8,0 7 4 - - S 1023,0 35
16.09.2018 11:00:00 17,7 8,0 7 4 - - SE 1023,7 30
16.09.2018 10:00:00 14,7 7,8 7 4 - - SE 1023,7 30
16.09.2018 09:00:00 12,2 6,6 7 4 - - SE 1024,0 30
16.09.2018 08:00:00 8,5 6,2 7 4 - - SSE 1024,1 30
16.09.2018 07:00:00 6,6 4,9 7 4 - - SE 1024,2 30
16.09.2018 06:00:00 8,9 6,7 7 4 - - SSE 1024,1 30
16.09.2018 05:00:00 10,2 7,2 11 6 - - SSE 1024,1 30
16.09.2018 04:00:00 11,0 7,3 7 4 - - S 1024,6 30
16.09.2018 03:00:00 11,2 7,9 7 4 - - SSE 1025,1 30
16.09.2018 02:00:00 9,7 7,3 4 2 - - ESE 1025,6 30
16.09.2018 01:00:00 10,2 7,7 4 2 - - N 1026,1 30
16.09.2018 00:00:00 11,1 8,1 0 0 - - N 1025,9 30
15.09.2018 23:00:00 12,2 8,0 4 2 - - S 1025,8 30
15.09.2018 22:00:00 12,7 8,5 4 2 - - SW 1025,7 30
15.09.2018 21:00:00 14,4 8,3 4 2 - - SSE 1025,3 45
15.09.2018 20:00:00 15,9 8,4 4 2 - - NW 1024,8 75
15.09.2018 19:00:00 18,6 7,9 7 4 - - NNW 1024,5 75
15.09.2018 18:00:00 18,8 7,7 11 6 - - NW 1024,7 75
15.09.2018 17:00:00 19,1 6,8 14 8 - - WNW 1024,7 75
15.09.2018 16:00:00 19,6 6,7 18 10 - - WNW 1024,4 75
15.09.2018 15:00:00 19,2 7,1 22 12 - - W 1024,6 55
15.09.2018 14:00:00 19,3 8,7 25 14 - - W 1024,6 65
15.09.2018 13:00:00 18,0 10,5 22 12 - - WNW 1024,8 27
15.09.2018 12:00:00 16,6 10,1 22 12 - - W 1025,0 28
15.09.2018 11:00:00 17,1 10,4 25 14 - - W 1024,5 40
15.09.2018 10:00:00 16,1 10,8 22 12 - - W 1024,2 45
15.09.2018 09:00:00 13,1 9,4 7 4 - - SW 1023,9 24
15.09.2018 08:00:00 11,1 8,8 11 6 - - SW 1023,4 23
15.09.2018 07:00:00 10,8 8,4 11 6 - - SSW 1023,0 23
15.09.2018 06:00:00 11,7 8,3 11 6 - - SW 1022,7 25
15.09.2018 05:00:00 12,2 8,0 11 6 - - SW 1022,7 28
15.09.2018 04:00:00 12,5 8,1 14 8 - - W 1022,6 29
15.09.2018 03:00:00 14,1 8,1 11 6 - - WSW 1022,3 27
15.09.2018 02:00:00 14,6 8,1 11 6 - - W 1022,2 29
15.09.2018 01:00:00 14,9 7,9 11 6 - - W 1021,8 29
15.09.2018 00:00:00 14,7 8,1 11 6 - - W 1021,7 30
14.09.2018 23:00:00 14,6 7,6 11 6 - - W 1021,3 30
14.09.2018 22:00:00 15,1 6,8 11 6 - - W 1021,1 20
14.09.2018 21:00:00 15,4 6,4 7 4 - - W 1020,7 20
14.09.2018 20:00:00 16,5 6,2 7 4 - - WNW 1020,2 20
14.09.2018 19:00:00 18,3 5,4 14 8 - - NW 1020,0 20

tt = Température de l'air
td = dewpoint
ff = Vitesse du vent
fx = gusts
dd = Direction du vent
ppp = reduced air pressure
vv = visibility

stations d'obs. à proximité